Skip Page Navigation
NASA JPL Caltech
NASA Logo - Jet Propulsion Laboratory + View the NASA Portal
+ Center for Near-Earth Object Studies
JPL Home Earth Solar System Stars & Galaxies Technology
JPL Solar System Dynamics
BODIES ORBITS EPHEMERIDES TOOLS PHYSICAL DATA DISCOVERY FAQ SITE MAP
JPL Small-Body Database Browser
Search: [ help ]  
373695 (2002 RJ117)
Classification: Main-belt Asteroid          SPK-ID: 2373695
Ephemeris | Orbit Diagram | Orbital Elements | Mission Design | Physical Parameters | Discovery Circumstances ]

[ hide orbit diagram ]

For accurate long-term ephemerides, please instead use our Horizons system.This orbit viewer was implemented using two-body methods, and hence should not be used for determining accurate long-term trajectories (over several years or decades) or planetary encounter circumstances.


Orbital Elements at Epoch 2459200.5 (2020-Dec-17.0) TDB
Reference: JPL 14 (heliocentric ecliptic J2000)
 Element Value Uncertainty (1-sigma)   Units 
e .2394117189636749 4.4588e-08  
a 2.372271911630146 9.857e-09 au
q 1.80432221541753 1.0932e-07 au
i 6.159744201415685 4.7726e-06 deg
node 82.56333686819865 5.0524e-05 deg
peri 305.4544300168747 5.2372e-05 deg
M 347.6765337846499 1.3937e-05 deg
tp 2459246.185197315458
(2021-Jan-31.68519732)
5.1855e-05 TDB
period 1334.581581688352
3.65
8.318e-06
2.277e-08
d
yr
n .2697474661268526 1.6812e-09 deg/d
Q 2.940221607842762 1.2217e-08 au
  Orbit Determination Parameters
   # obs. used (total)      249  
   data-arc span      6582 days (18.02 yr)  
   first obs. used      2002-09-08  
   last obs. used      2020-09-15  
   planetary ephem.      DE441  
   SB-pert. ephem.      SB441-N16  
   condition code      0  
   norm. resid. RMS      .55149  
   source      ORB  
   producer      Otto Matic  
   solution date      2021-Apr-14 10:21:45  

Additional Information
 Earth MOID = .816784 au 
 Jupiter MOID = 2.51949 au 
 T_jup = 3.497 
[ show covariance matrix ]

Ephemeris | Orbit Diagram | Orbital Elements | Mission Design | Physical Parameters | Discovery Circumstances ]

Physical Parameter Table
Parameter Symbol Value Units Sigma Reference Notes
absolute magnitude H 17.32   n/a E2021B25  

373695 (2002 RJ117)          Discovered 2002-Sep-08 by Pravec, P., Kusnirak, P. at Ondrejov
Reference: Last Updated: 2013-10-21
Ephemeris | Orbit Diagram | Orbital Elements | Mission Design | Physical Parameters | Discovery Circumstances ]
ABOUT SSD CREDITS/AWARDS PRIVACY/COPYRIGHT GLOSSARY LINKS
FirstGov 2021-Jun-14 19:42 UT
(server date/time)  
NASA Home Page
Site Manager:   Ryan S. Park
Webmaster  Alan B. Chamberlin